Location: B
(0.0000°N, 0.0000°E)
Time: 17:31:36
(UTC+02:00)

Amateur Radio Satellites - All Passes

Search period start: 31 July 2014 17:01
Search period end: 01 August 2014 17:01
Location: B, 0.0000°N, 0.0000°E

Satellite Date Start Highest point End Downlink Frequencies (MHz)
Time Altitude Azimuth
AO-Echo 31 Jul 17:10:01 17:10:53 10° 258° (WSW) 17:11:45 ?
OPAL 31 Jul 17:11:03 17:15:40 33° 104° (ESE) 17:20:19 ?
Gurwin Techsat 1B 31 Jul 17:22:26 17:26:40 24° 257° (WSW) 17:30:54 435.225 FM
Uosat F 31 Jul 17:27:08 17:31:47 37° 77° (ENE) 17:36:25 435.120 FM
AO-7 31 Jul 17:32:41 17:40:40 50° 74° (ENE) 17:48:37 29.400 - 29.500 MHz
KITSAT 1 31 Jul 18:17:16 18:25:06 58° 250° (WSW) 18:32:59 435.175 FM
Saudisat 1A 31 Jul 18:18:36 18:22:34 34° 68° (ENE) 18:26:31 436.775 MHz
OPAL 31 Jul 18:51:21 18:54:16 15° 284° (WNW) 18:57:13 ?
Oscar 10/S400 31 Jul 19:00:25 19:31:34 85° 331° (NNW) 19:51:58 145.825 - 145.975 CW/USB, Beacon 145.810 USB
Uosat F 31 Jul 19:08:18 19:10:17 12° 257° (WSW) 19:12:15 435.120 FM
JAS-2 31 Jul 19:19:37 19:26:56 44° 77° (ENE) 19:34:12 435.800 - 435.900 CW/SSB, 435.910 FM
AO-7 31 Jul 19:27:06 19:33:03 22° 253° (WSW) 19:39:02 29.400 - 29.500 MHz
STRAND 1 31 Jul 19:39:11 19:43:01 22° 103° (ESE) 19:46:51 ?
Hamsat 31 Jul 19:46:33 19:50:43 73° 259° (WSW) 19:54:52 145.90 MHz
Saudisat 1A 31 Jul 20:01:42 20:01:54 10° 247° (WSW) 20:02:06 436.775 MHz
SO-67 31 Jul 20:03:00 20:04:28 12° 79° (E) 20:05:57 435.3500 MHz FM
JAS-2 31 Jul 21:05:35 21:11:32 25° 257° (WSW) 21:17:33 435.800 - 435.900 CW/SSB, 435.910 FM
STRAND 1 31 Jul 21:18:05 21:21:56 22° 283° (WNW) 21:25:48 ?
MaSat-1 31 Jul 21:29:32 21:31:53 19° 291° (WNW) 21:34:29 437.345 MHz
SO-67 31 Jul 21:35:15 21:37:17 15° 259° (W) 21:39:18 435.3500 MHz FM
ISS 31 Jul 21:41:55 21:44:51 29° 305° (NW) 21:47:47 145.800 FM
AO-40 31 Jul 21:48:11 04:25:02 82° 182° (S) 10:56:27 Beacon 2401.320
UKube-1 31 Jul 22:14:34 22:17:40 19° 78° (ENE) 22:20:46 145.840 MHz, 145.915 MHz
PCSat 31 Jul 22:54:14 22:55:24 11° 110° (ESE) 22:56:35 145.825 MHz
Oscar 11 31 Jul 22:56:01 22:59:49 31° 78° (ENE) 23:03:36 145.825 FM, Beacon 2401.500 USB
HO-68 31 Jul 22:56:44 23:03:56 78° 256° (WSW) 23:11:05 435.675 MHz FM
PANSAT 31 Jul 23:09:53 23:12:49 20° 151° (SSE) 23:15:44 not established
FUNcube-1 31 Jul 23:25:35 23:29:06 23° 79° (E) 23:32:31 145.950 - 145.970 MHz USB
SO-50 31 Jul 23:35:15 23:40:04 75° 68° (ENE) 23:44:54 436.795 FM
UKube-1 31 Jul 23:50:39 23:53:37 18° 257° (WSW) 23:56:34 145.840 MHz, 145.915 MHz
Sapphire 01 Aug 00:00:11 00:05:31 64° 109° (ESE) 00:10:50 437.095 MHz 1200 baud AX-25 AFSK
PCSat 01 Aug 00:33:25 00:38:35 47° 289° (WNW) 00:43:44 145.825 MHz
Oscar 11 01 Aug 00:35:17 00:35:44 10° 258° (WSW) 00:36:10 145.825 FM, Beacon 2401.500 USB
PANSAT 01 Aug 00:49:10 00:52:57 55° 330° (NNW) 00:56:45 not established
RS-15 01 Aug 01:00:01 01:11:29 83° 70° (ENE) 01:23:31 29.354 - 29.394 USB, Beacon 29.352 USB
FUNcube-1 01 Aug 01:02:39 01:05:12 15° 257° (WSW) 01:07:44 145.950 - 145.970 MHz USB
UOSAT-12 01 Aug 01:20:38 01:25:10 58° 68° (ENE) 01:29:37 437.025 FM, 437.400 FM
Oscar 19 01 Aug 02:26:16 02:30:06 21° 103° (ESE) 02:33:56 437.125 CW, 437.150 USB
Oscar 16 01 Aug 02:53:58 02:58:57 50° 103° (ESE) 03:03:58 437.025 USB, Beacon 2401.1428
JAS-1B 01 Aug 03:13:26 03:18:05 18° 100° (E) 03:22:19 435.800 - 435.900 CW/SSB
RS-15 01 Aug 03:18:03 03:23:55 15° 246° (WSW) 03:29:57 29.354 - 29.394 USB, Beacon 29.352 USB
ITAMSAT 1 01 Aug 03:21:20 03:26:02 36° 103° (ESE) 03:30:44 435.822 SSB
Uribyol 2 01 Aug 03:39:34 03:44:40 67° 103° (ESE) 03:49:49 436.500 FM
AO-27 01 Aug 03:40:56 03:46:02 66° 103° (ESE) 03:51:10 436.795 MHz FM
TMSAT-1 01 Aug 03:55:24 03:59:09 20° 103° (ESE) 04:02:54 436.925 FM
AO-Echo 01 Aug 03:57:07 04:01:54 74° 282° (WNW) 04:06:36 ?
Oscar 19 01 Aug 04:05:04 04:09:10 24° 283° (WNW) 04:13:16 437.125 CW, 437.150 USB
Gurwin Techsat 1B 01 Aug 04:20:15 04:25:28 62° 102° (ESE) 04:30:42 435.225 FM
KITSAT 1 01 Aug 04:32:03 04:38:05 23° 111° (ESE) 04:44:05 435.175 FM
JAS-1B 01 Aug 05:01:25 05:08:39 43° 286° (WNW) 05:14:50 435.800 - 435.900 CW/SSB
ITAMSAT 1 01 Aug 05:02:50 05:05:15 13° 283° (WNW) 05:07:40 435.822 SSB
TMSAT-1 01 Aug 05:34:28 05:38:47 26° 283° (WNW) 05:43:08 436.925 FM
OPAL 01 Aug 05:42:37 05:47:36 82° 76° (ENE) 05:52:32 ?
Uosat F 01 Aug 05:56:30 06:01:29 89° 102° (ESE) 06:06:30 435.120 FM
AO-7 01 Aug 05:58:45 06:07:01 79° 106° (ESE) 06:15:18 29.400 - 29.500 MHz
Saudisat 1A 01 Aug 06:24:28 06:28:46 54° 112° (ESE) 06:33:03 436.775 MHz
KITSAT 1 01 Aug 06:25:34 06:33:10 45° 290° (WNW) 06:40:46 435.175 FM
JAS-2 01 Aug 06:56:38 06:59:24 15° 103° (ESE) 07:02:11 435.800 - 435.900 CW/SSB, 435.910 FM
MaSat-1 01 Aug 07:46:54 07:49:26 15° 69° (ENE) 07:51:48 437.345 MHz
Hamsat 01 Aug 07:53:41 07:57:56 57° 281° (WNW) 08:02:14 145.90 MHz
AO-7 01 Aug 07:57:00 07:59:20 11° 288° (WNW) 08:01:41 29.400 - 29.500 MHz
STRAND 1 01 Aug 08:10:48 08:15:51 56° 78° (ENE) 08:20:52 ?
JAS-2 01 Aug 08:39:48 08:44:17 30° 283° (WNW) 08:48:45 435.800 - 435.900 CW/SSB, 435.910 FM
Oscar 10/S400 01 Aug 08:49:26 10:14:51 22° 277° (W) 12:50:05 145.825 - 145.975 CW/USB, Beacon 145.810 USB
ISS 01 Aug 09:17:12 09:20:26 48° 235° (SW) 09:23:41 145.800 FM
SO-67 01 Aug 09:19:11 09:22:07 26° 281° (W) 09:25:03 435.3500 MHz FM
MaSat-1 01 Aug 09:22:57 09:26:31 23° 256° (WSW) 09:29:43 437.345 MHz
UKube-1 01 Aug 10:23:52 10:27:27 25° 102° (ESE) 10:31:02 145.840 MHz, 145.915 MHz
HO-68 01 Aug 10:48:16 10:55:24 89° 104° (ESE) 11:02:35 435.675 MHz FM
Sapphire 01 Aug 10:56:16 10:58:42 13° 70° (ENE) 11:01:07 437.095 MHz 1200 baud AX-25 AFSK
PANSAT 01 Aug 10:57:22 11:00:21 21° 29° (NNE) 11:03:19 not established
Oscar 11 01 Aug 11:04:51 11:08:57 42° 102° (ESE) 11:13:05 145.825 FM, Beacon 2401.500 USB
PCSat 01 Aug 11:26:53 11:31:45 35° 71° (ENE) 11:36:37 145.825 MHz
FUNcube-1 01 Aug 11:35:40 11:39:30 31° 102° (ESE) 11:43:25 145.950 - 145.970 MHz USB
SO-50 01 Aug 11:49:09 11:53:29 55° 292° (WNW) 11:57:48 436.795 FM
UKube-1 01 Aug 12:01:26 12:03:23 13° 282° (WNW) 12:05:21 145.840 MHz, 145.915 MHz
PANSAT 01 Aug 12:36:44 12:40:29 52° 210° (SSW) 12:44:14 not established
Sapphire 01 Aug 12:36:50 12:41:51 40° 251° (WSW) 12:46:54 437.095 MHz 1200 baud AX-25 AFSK
RS-15 01 Aug 12:43:07 12:54:45 72° 111° (ESE) 13:05:48 29.354 - 29.394 USB, Beacon 29.352 USB
PCSat 01 Aug 13:11:52 13:14:54 15° 250° (WSW) 13:17:57 145.825 MHz
FUNcube-1 01 Aug 13:15:12 13:15:40 10° 281° (W) 13:16:08 145.950 - 145.970 MHz USB
UOSAT-12 01 Aug 13:30:43 13:35:10 80° 292° (WNW) 13:39:41 437.025 FM, 437.400 FM
Uribyol 2 01 Aug 14:39:32 14:40:34 11° 77° (ENE) 14:41:35 436.500 FM
AO-27 01 Aug 14:41:11 14:42:10 11° 77° (ENE) 14:43:09 436.795 MHz FM
AO-Echo 01 Aug 14:49:27 14:52:29 16° 77° (ENE) 14:55:32 ?
Oscar 19 01 Aug 14:58:59 15:03:59 54° 78° (ENE) 15:08:56 437.125 CW, 437.150 USB
RS-15 01 Aug 14:59:55 15:06:41 18° 292° (WNW) 15:13:22 29.354 - 29.394 USB, Beacon 29.352 USB
JAS-1B 01 Aug 15:18:26 15:24:50 27° 73° (ENE) 15:31:58 435.800 - 435.900 CW/SSB
Gurwin Techsat 1B 01 Aug 15:23:02 15:24:25 11° 77° (ENE) 15:25:49 435.225 FM
Oscar 16 01 Aug 15:27:54 15:32:58 62° 258° (WSW) 15:38:00 437.025 USB, Beacon 2401.1428
ITAMSAT 1 01 Aug 15:56:00 16:01:14 83° 257° (WSW) 16:06:27 435.822 SSB
Uribyol 2 01 Aug 16:14:47 16:19:45 45° 257° (WSW) 16:24:42 436.500 FM
AO-27 01 Aug 16:16:25 16:21:24 46° 257° (WSW) 16:26:22 436.795 MHz FM
AO-Echo 01 Aug 16:26:18 16:30:56 33° 258° (WSW) 16:35:39 ?
TMSAT-1 01 Aug 16:32:11 16:37:24 57° 78° (ENE) 16:42:34 436.925 FM
AO-7 01 Aug 16:36:48 16:41:06 15° 73° (ENE) 16:45:23 29.400 - 29.500 MHz
AO-40 01 Aug 16:37:11 16:44:20 52° 4° (N) 16:50:20 Beacon 2401.320
OPAL 01 Aug 16:38:39 16:40:37 12° 105° (ESE) 16:42:36 ?
KITSAT 1 01 Aug 16:39:20 16:46:06 30° 70° (ENE) 16:52:50 435.175 FM
Uosat F 01 Aug 16:50:54 16:52:49 12° 77° (ENE) 16:54:43 435.120 FM
